This is the latest recevied weather packets stored in our database for station/object IW7DVM-13. If no packets are shown the sender has not sent any weather packets the latest 10 day(s).
| Time | Temp. | Humidity | Pressure | Rain* | Wind** | Luminosity | Snow |
|---|---|---|---|---|---|---|---|
| 1788083703 | 32.78° C | 59% | 1008.7 hPa | 0 mm | - | - | - |
| 1788083403 | 32.22° C | 59% | 1008.8 hPa | 0 mm | - | - | - |
| 1788083103 | 32.22° C | 59% | 1008.8 hPa | 0 mm | - | - | - |
| 1788082803 | 32.22° C | 59% | 1009 hPa | 0 mm | - | - | - |
| 1788082503 | 32.22° C | 59% | 1009 hPa | 0 mm | - | - | - |
| 1788082203 | 32.22° C | 59% | 1009 hPa | 0 mm | - | - | - |
| 1788081903 | 32.22° C | 58% | 1009.1 hPa | 0 mm | - | - | - |
| 1788081603 | 32.22° C | 57% | 1009.2 hPa | 0 mm | - | - | - |
| 1788081303 | 32.22° C | 58% | 1009 hPa | 0 mm | - | - | - |
| 1788081003 | 32.78° C | 57% | 1009.2 hPa | 0 mm | - | - | - |
| 1788080703 | 32.78° C | 55% | 1009.2 hPa | 0 mm | - | - | - |
| 1788080403 | 32.78° C | 53% | 1009.2 hPa | 0 mm | - | - | - |
| 1788080103 | 32.78° C | 53% | 1009.2 hPa | 0 mm | - | - | - |
| 1788079803 | 32.78° C | 54% | 1009.2 hPa | 0 mm | - | - | - |
| 1788079503 | 32.22° C | 53% | 1009.2 hPa | 0 mm | - | - | - |
| 1788079203 | 32.22° C | 55% | 1009.3 hPa | 0 mm | - | - | - |
| 1788078903 | 32.22° C | 55% | 1009.1 hPa | 0 mm | - | - | - |
| 1788078603 | 32.22° C | 54% | 1009.3 hPa | 0 mm | - | - | - |
| 1788078303 | 33.33° C | 50% | 1009.3 hPa | 0 mm | - | - | - |
| 1788078003 | 33.33° C | 46% | 1009.1 hPa | 0 mm | - | - | - |
| 1788077703 | 33.33° C | 45% | 1009.1 hPa | 0 mm | - | - | - |
| 1788077403 | 33.33° C | 43% | 1009.1 hPa | 0 mm | - | - | - |
| 1788077103 | 33.89° C | 44% | 1009.1 hPa | 0 mm | - | - | - |
| 1788076804 | 33.89° C | 36% | 1009 hPa | 0 mm | - | - | - |
| 1788076503 | 34.44° C | 38% | 1009 hPa | 0 mm | - | - | - |
* Rain latest hour (hover to see other rain measurements)
** Current wind speed in m/s (hover to see current wind gust speed)